Wind_Speed
53 54 55 56 57 58 59 61 62 62 63 65 66 66 66 66 67 66 65 65 63 63 64 66 66 67 67 67 68 68 69 69 69 64 63 63 62 62 60 58 56 54 51
52 53 54 55 57 58 59 60 61 62 63 64 64 65 64 64 64 64 63 62 62 62 63 64 64 65 65 66 66 66 67 67 67 64 61 60 60 59 57 55 53 52 49
52 53 54 55 55 56 57 58 59 61 62 62 62 61 61 61 61 60 60 60 60 61 61 62 63 63 63 63 63 64 65 65 65 63 60 58 57 56 54 52 50 49 47
51 52 53 54 54 55 56 57 58 59 60 59 58 58 58 58 58 57 57 58 58 59 60 62 62 61 61 61 61 62 63 63 62 61 58 56 55 54 53 50 48 47 46
51 51 52 53 54 55 56 57 57 57 57 57 56 56 56 56 55 55 55 56 57 58 59 59 59 59 59 60 60 60 60 60 59 59 57 55 54 53 51 49 47 45 44
51 52 53 54 55 55 56 56 56 55 55 55 55 55 54 53 54 55 55 55 56 56 57 58 58 57 58 58 59 58 58 58 57 57 55 54 53 51 49 48 47 45 42
52 53 53 53 54 54 54 53 53 53 54 53 53 52 53 53 53 53 53 54 55 55 55 56 55 55 56 57 56 56 55 55 55 55 54 53 51 50 48 46 45 44 41
51 51 51 52 52 52 52 52 52 52 52 52 51 52 52 52 52 52 52 53 53 54 54 54 54 54 55 55 54 53 52 52 52 53 52 51 49 47 46 44 43 41 39
50 50 51 51 51 51 51 51 51 51 51 51 51 51 51 51 51 51 52 52 53 52 52 52 53 53 53 53 52 51 50 49 49 50 50 49 47 45 44 43 42 40 37
50 50 50 51 51 51 51 51 51 51 51 52 51 51 52 51 51 51 52 52 52 51 51 51 52 52 51 51 50 49 48 47 47 47 47 46 45 43 42 41 40 38 36
50 51 51 51 51 51 51 52 52 53 53 53 53 53 53 52 52 51 51 51 51 50 50 50 50 50 49 49 48 48 47 46 45 45 45 44 42 41 40 39 38 36 34
51 51 51 52 52 53 54 55 55 55 55 54 54 54 53 52 51 50 50 50 50 49 49 49 49 48 47 47 46 46 45 44 44 44 43 42 41 39 38 37 36 35 33
51 52 52 53 54 55 56 57 56 56 56 55 55 54 53 52 50 48 48 48 48 47 47 47 47 46 45 45 44 44 44 43 42 42 42 40 40 38 36 35 34 33 31
53 54 55 56 56 57 57 58 58 58 57 56 55 54 53 50 48 47 46 46 46 46 46 45 45 44 43 43 43 43 42 41 41 41 40 39 38 36 35 33 32 30 28
56 56 57 57 58 58 58 59 59 58 58 56 55 54 52 49 47 46 45 44 44 44 44 44 43 42 41 41 41 41 41 40 40 40 39 37 36 35 33 31 29 27 24
57 57 57 57 58 58 59 59 59 58 57 55 54 53 51 48 46 44 43 42 42 42 42 42 41 40 40 40 40 40 39 39 39 39 38 36 35 33 30 28 27 24 23
57 57 57 58 58 59 59 59 58 57 55 54 52 51 48 45 43 41 40 40 40 40 40 39 39 38 38 38 38 38 38 38 38 38 37 36 33 30 27 26 25 24 22
57 57 58 58 59 59 59 58 57 55 52 50 49 47 45 42 40 38 38 38 38 37 37 37 36 37 37 37 36 36 36 37 37 37 36 34 31 27 25 25 24 23 21
56 56 57 58 58 57 56 55 53 51 49 47 45 43 40 38 37 35 35 35 35 35 35 34 35 35 35 35 35 35 36 36 37 36 34 31 28 26 25 24 24 23 20
54 55 56 56 55 54 52 50 48 47 45 43 41 38 35 33 32 32 32 32 32 32 32 32 33 34 34 34 34 34 35 36 36 35 32 30 27 26 24 24 23 20 18
52 53 53 53 52 51 49 46 45 43 40 39 35 32 30 29 29 29 29 29 29 30 30 31 32 32 33 33 33 34 35 36 35 33 31 28 27 25 23 22 20 18 15
51 51 51 50 49 47 45 43 41 39 37 34 30 28 27 26 25 25 25 26 27 28 29 30 31 31 31 32 33 34 35 35 33 31 29 27 25 23 21 19 17 14 12
49 49 48 47 46 44 42 40 39 35 32 29 26 25 23 22 22 22 23 24 25 26 27 29 30 30 31 32 33 34 34 33 31 29 28 26 24 21 18 16 13 11 10
47 47 46 44 43 42 39 37 34 30 27 26 24 22 20 20 20 21 21 22 24 25 26 28 29 30 30 31 33 33 32 30 29 27 26 23 20 17 15 12 10 9 8
46 44 43 42 40 38 35 32 29 27 25 24 21 19 18 18 19 19 20 21 22 24 25 27 28 29 30 30 31 30 29 27 26 24 22 19 16 13 11 9 8 7 6
43 41 40 39 37 35 32 30 27 25 24 21 18 17 17 17 17 18 19 20 21 22 24 25 27 27 28 28 28 27 25 24 22 20 18 15 12 9 7 6 5 5 5
Wind_Direction
292 293 293 293 292 292 293 293 294 294 294 295 296 297 298 299 299 300 301 301 302 302 302 303 304 305 306 306 307 309 310 311 313 314 313 312 312 312 311 310 310 309 308
293 293 293 293 293 293 293 294 295 296 296 297 297 298 298 299 300 300 300 300 300 301 302 304 305 305 306 307 308 309 311 312 313 315 315 314 313 312 312 311 310 310 308
295 295 294 294 294 294 295 296 297 297 298 298 298 298 298 299 300 300 299 299 300 301 302 303 304 305 306 307 308 310 311 312 314 315 316 315 314 313 312 312 312 311 309
297 297 296 296 296 296 297 297 298 298 299 298 298 297 298 299 299 298 298 299 299 300 301 302 304 305 306 307 309 311 312 313 314 315 316 316 316 314 314 314 313 312 311
298 298 297 297 297 297 297 297 297 298 298 298 298 298 298 298 298 298 299 299 300 300 301 302 304 305 306 308 310 311 312 313 314 315 317 318 318 316 315 315 314 313 312
298 297 297 297 298 298 298 298 298 298 298 299 299 298 297 297 297 297 298 298 300 301 301 302 304 305 306 308 310 311 312 314 314 316 317 318 318 318 316 316 316 315 313
298 298 297 297 298 298 298 298 298 299 299 299 299 298 297 297 297 298 298 299 300 301 301 302 304 305 306 309 310 312 313 313 314 316 318 319 319 319 317 317 316 315 315
299 298 298 298 298 299 299 299 299 299 299 299 299 299 299 298 298 298 298 299 300 301 301 302 304 305 306 309 311 312 313 313 314 316 317 318 318 318 317 317 318 317 315
300 299 299 299 299 299 300 300 300 300 300 300 300 300 300 299 298 298 298 299 300 300 301 302 304 305 307 309 311 312 313 313 314 315 317 319 318 319 318 318 319 318 317
300 299 299 300 300 300 300 300 300 301 300 300 300 300 300 300 299 299 299 299 300 300 300 301 303 305 307 310 311 313 313 314 314 316 317 318 318 318 318 318 319 319 319
301 300 300 300 300 300 300 300 300 300 300 299 300 299 299 299 298 298 298 298 299 299 300 301 303 305 308 310 312 313 314 314 315 316 317 318 318 318 318 317 318 319 319
301 301 300 300 300 300 300 300 300 300 300 299 299 299 298 298 297 296 296 297 298 299 299 301 303 305 308 310 312 313 314 315 316 317 318 318 318 318 318 317 317 318 318
301 301 300 300 301 301 301 301 300 299 299 299 300 299 298 297 296 295 295 296 297 298 299 301 303 305 308 310 312 313 314 315 316 317 318 318 318 318 317 316 316 316 317
301 301 301 301 301 301 301 301 300 300 299 299 299 298 298 296 294 293 294 295 296 297 298 300 302 305 308 310 312 313 314 315 317 317 318 318 318 317 316 316 316 315 316
302 302 302 302 302 302 302 302 301 300 299 299 298 297 298 296 293 291 292 293 294 295 298 300 302 305 308 310 312 313 314 316 317 318 318 318 317 317 315 315 316 315 315
303 303 303 303 303 303 303 302 301 300 299 299 298 298 297 293 291 290 290 290 292 294 297 299 302 305 308 311 313 314 315 316 317 318 318 317 317 316 314 314 315 314 313
304 304 304 304 304 304 304 303 302 300 299 298 297 297 295 291 288 287 287 288 290 293 296 299 302 305 308 311 313 314 315 316 317 318 318 317 315 314 312 312 314 313 311
305 305 306 306 306 305 305 304 303 302 300 298 297 296 293 289 287 285 284 287 290 293 296 299 302 306 309 312 313 315 315 316 317 317 317 316 314 312 309 309 311 311 309
306 307 307 308 308 307 306 305 304 303 302 300 298 296 291 288 286 285 284 286 289 293 296 299 303 307 310 312 314 315 316 316 317 317 316 315 313 310 307 306 306 307 306
308 309 309 310 311 310 309 308 306 305 303 301 299 295 291 288 286 284 285 286 289 293 296 300 304 308 311 313 315 316 317 317 317 317 316 313 311 309 307 305 304 303 302
311 311 312 312 313 313 312 311 310 308 305 303 300 295 292 288 286 285 285 287 291 294 298 301 306 310 312 314 316 317 317 317 317 316 315 313 311 308 307 305 303 299 295
313 313 313 314 314 315 314 313 312 309 307 305 300 296 292 289 286 286 287 289 293 297 300 304 308 311 313 315 317 318 318 318 317 316 315 313 311 308 305 303 301 294 286
314 315 315 315 315 315 315 314 313 311 308 304 300 298 294 290 288 288 290 292 296 299 303 308 311 313 315 317 319 319 319 318 317 316 314 313 310 307 303 299 296 288 276
315 316 316 316 317 316 315 315 314 312 310 306 301 297 294 291 291 292 293 296 299 303 307 311 314 315 317 319 320 321 320 319 317 317 315 313 310 305 300 294 289 278 263
317 318 318 318 318 318 317 316 313 311 310 308 303 298 294 293 294 296 299 301 304 308 312 315 317 318 319 322 323 323 323 322 321 321 320 317 312 305 297 287 280 263 245
318 319 320 320 319 319 318 316 313 309 308 306 303 299 297 296 297 302 305 307 310 314 317 320 321 322 324 326 327 328 328 327 327 327 326 324 319 312 300 282 262 238 223
Height
5684 5678 5672 5666 5659 5652 5646 5639 5632 5626 5619 5613 5606 5600 5593 5586 5579 5571 5564 5557 5549 5541 5532 5523 5514 5505 5495 5485 5475 5464 5453 5442 5433 5425 5410 5397 5383 5371 5360 5348 5337 5328 5319
5669 5663 5657 5650 5643 5637 5631 5624 5617 5611 5604 5597 5591 5584 5577 5570 5562 5555 5548 5541 5533 5525 5516 5508 5499 5489 5479 5469 5459 5448 5437 5426 5415 5407 5396 5382 5370 5357 5346 5336 5325 5314 5306
5654 5648 5642 5635 5628 5622 5615 5609 5602 5595 5588 5581 5574 5568 5561 5554 5547 5539 5532 5525 5518 5510 5501 5493 5483 5474 5464 5454 5444 5433 5422 5411 5400 5389 5381 5369 5357 5345 5334 5324 5313 5303 5294
5639 5633 5626 5620 5613 5607 5601 5594 5587 5580 5573 5566 5559 5552 5546 5538 5531 5524 5517 5510 5502 5494 5486 5477 5468 5459 5449 5439 5429 5419 5408 5397 5386 5376 5366 5356 5344 5333 5321 5312 5303 5293 5283
5624 5618 5612 5605 5599 5592 5586 5579 5572 5565 5558 5550 5544 5537 5530 5523 5517 5509 5502 5495 5487 5479 5471 5462 5454 5444 5435 5425 5416 5406 5395 5384 5374 5363 5353 5342 5332 5320 5310 5300 5291 5282 5273
5610 5604 5597 5591 5584 5577 5570 5563 5556 5550 5543 5536 5529 5522 5515 5509 5502 5494 5488 5480 5473 5465 5456 5448 5439 5430 5421 5412 5402 5392 5382 5371 5361 5351 5341 5330 5320 5309 5299 5289 5280 5272 5265
5596 5589 5582 5576 5569 5562 5555 5548 5541 5535 5528 5521 5514 5507 5501 5494 5486 5479 5472 5466 5458 5450 5442 5434 5426 5417 5408 5399 5390 5380 5370 5359 5349 5339 5329 5319 5309 5300 5290 5281 5271 5262 5254
5581 5574 5568 5561 5554 5548 5541 5534 5527 5520 5513 5506 5500 5493 5486 5479 5471 5465 5458 5451 5444 5437 5429 5421 5413 5405 5396 5387 5378 5369 5359 5349 5338 5329 5320 5310 5300 5290 5280 5272 5263 5254 5247
5567 5560 5553 5547 5540 5534 5527 5520 5513 5506 5499 5492 5485 5478 5472 5465 5457 5451 5444 5437 5431 5423 5416 5408 5400 5392 5384 5375 5367 5358 5349 5339 5329 5319 5309 5300 5290 5281 5272 5263 5255 5246 5239
5553 5546 5539 5533 5526 5519 5513 5506 5499 5492 5485 5478 5471 5464 5457 5451 5443 5437 5430 5423 5417 5410 5403 5395 5388 5380 5372 5363 5355 5347 5338 5329 5320 5311 5301 5291 5282 5273 5264 5255 5247 5239 5232
5539 5532 5525 5518 5511 5505 5498 5491 5484 5477 5470 5464 5457 5450 5443 5436 5429 5423 5416 5410 5404 5397 5390 5383 5376 5368 5360 5352 5343 5336 5328 5319 5310 5302 5293 5283 5274 5266 5257 5249 5241 5233 5226
5525 5518 5510 5503 5497 5490 5483 5476 5469 5461 5455 5448 5441 5434 5427 5421 5415 5408 5402 5396 5390 5384 5378 5371 5364 5356 5349 5341 5333 5325 5317 5309 5301 5293 5284 5275 5267 5258 5251 5243 5235 5228 5221
5511 5503 5496 5489 5481 5474 5467 5460 5452 5445 5438 5432 5425 5418 5412 5405 5400 5394 5389 5383 5377 5372 5366 5359 5352 5345 5338 5330 5323 5315 5308 5300 5292 5284 5275 5267 5259 5251 5243 5236 5229 5222 5216
5496 5489 5481 5474 5466 5458 5450 5443 5436 5429 5422 5415 5408 5402 5396 5390 5385 5380 5375 5370 5365 5359 5354 5347 5341 5334 5327 5320 5313 5306 5298 5291 5283 5275 5267 5259 5251 5244 5236 5230 5223 5217 5211
5481 5473 5465 5458 5450 5442 5435 5426 5419 5412 5404 5398 5392 5386 5380 5375 5370 5366 5361 5357 5353 5348 5342 5336 5330 5324 5317 5311 5304 5297 5289 5282 5274 5267 5259 5252 5244 5237 5230 5223 5218 5212 5207
5466 5458 5450 5442 5434 5426 5418 5411 5402 5395 5388 5381 5375 5370 5364 5360 5355 5352 5348 5344 5340 5336 5331 5325 5320 5314 5308 5301 5294 5287 5280 5273 5266 5258 5251 5244 5237 5230 5224 5218 5213 5208 5203
5449 5442 5434 5426 5417 5409 5401 5393 5386 5379 5372 5365 5359 5353 5348 5344 5341 5338 5335 5332 5328 5324 5320 5315 5310 5304 5298 5292 5285 5279 5272 5265 5258 5250 5243 5236 5229 5223 5218 5213 5208 5204 5199
5434 5426 5418 5410 5401 5392 5384 5376 5368 5361 5355 5349 5343 5338 5333 5330 5327 5325 5323 5320 5317 5314 5310 5305 5300 5295 5289 5283 5277 5270 5263 5257 5250 5242 5235 5228 5222 5217 5212 5208 5203 5199 5195
5419 5411 5403 5394 5385 5376 5367 5359 5352 5345 5339 5333 5328 5323 5319 5317 5315 5313 5312 5310 5307 5304 5300 5296 5291 5286 5280 5274 5268 5262 5255 5249 5242 5234 5227 5221 5215 5211 5206 5202 5198 5194 5191
5405 5397 5388 5379 5370 5361 5352 5345 5338 5331 5325 5319 5315 5310 5307 5305 5304 5303 5302 5300 5298 5295 5291 5287 5283 5277 5272 5266 5260 5254 5247 5240 5233 5226 5220 5214 5209 5204 5200 5196 5192 5189 5186
5392 5384 5374 5365 5356 5348 5340 5332 5325 5318 5313 5308 5304 5300 5298 5296 5295 5294 5293 5291 5289 5286 5283 5279 5274 5269 5264 5258 5252 5246 5239 5232 5225 5219 5212 5207 5202 5197 5193 5190 5187 5184 5182
5379 5371 5362 5353 5345 5336 5328 5321 5314 5308 5303 5298 5294 5292 5289 5288 5287 5286 5285 5283 5281 5278 5275 5271 5266 5261 5256 5250 5244 5238 5231 5224 5217 5211 5205 5200 5195 5190 5187 5184 5181 5179 5178
5367 5358 5350 5342 5334 5326 5318 5312 5305 5299 5294 5290 5287 5285 5283 5281 5281 5280 5278 5276 5274 5271 5267 5263 5259 5254 5248 5242 5236 5230 5223 5216 5210 5204 5198 5193 5188 5184 5181 5179 5177 5176 5175
5356 5348 5339 5332 5324 5316 5309 5303 5297 5293 5288 5285 5282 5279 5277 5276 5275 5274 5272 5270 5267 5264 5261 5256 5251 5246 5241 5235 5228 5222 5215 5208 5202 5196 5191 5186 5182 5179 5177 5175 5174 5174 5174
5346 5338 5330 5322 5315 5308 5301 5296 5291 5287 5283 5280 5277 5275 5273 5272 5270 5269 5266 5264 5261 5258 5254 5249 5245 5239 5234 5227 5221 5214 5208 5202 5196 5190 5185 5181 5177 5175 5173 5172 5172 5172 5173
5336 5329 5321 5314 5307 5301 5295 5289 5285 5281 5278 5275 5272 5270 5269 5267 5266 5264 5261 5259 5256 5252 5248 5243 5238 5233 5227 5221 5215 5209 5202 5197 5191 5186 5181 5177 5174 5172 5171 5171 5171 5172 5172